Location: Georgenberg
(48.1500°N, 16.2500°E)
Time: 13:24:34
(UTC+01:00)

N. Korean satellite - Pass Details

Date: 05 December 2022
Orbit: 407 x 441 km, 97.3° (Epoch: 05 February)

Event Time Altitude Azimuth Distance (km) Brightness Sun altitude
Rises 05:17:27 0° 13° (NNE) 2,524 10.2 -21.0°
Reaches altitude 10° 05:19:31 10° 14° (NNE) 1,637 9.3 -20.7°
Maximum altitude 05:23:03 81° 102° (ESE) 476 6.5 -20.1°
Drops below altitude 10° 05:26:29 10° 191° (S) 1,598 9.2 -19.5°
Sets 05:28:29 0° 192° (SSW) 2,456 10.2 -19.2°
